Location: Brookfield Village
(37.7352°N, 122.1861°W)
Time: 01:44:54
(UTC+00:00)

Envisat - Visible Passes

Search period start: 13 October 2024 00:00
Search period end: 23 October 2024 00:00
Orbit: 762 x 764 km, 98.3° (Epoch: 12 October)

Date Brightness Start Highest point End Pass type
(mag) Time Alt. Az. Time Alt. Az. Time Alt. Az.
13 Oct 5.2 11:32:03 10° N 11:33:09 17° N 11:33:09 17° N visible
14 Oct 5.7 10:54:38 10° NNE 10:55:06 13° NNE 10:55:06 13° NNE visible
14 Oct 5.2 12:34:52 10° NNW 12:35:14 11° NNW 12:35:14 11° NNW visible
15 Oct 5.1 11:56:18 10° N 11:57:10 15° N 11:57:10 15° N visible
16 Oct 5.5 11:18:30 10° NNE 11:19:05 13° NNE 11:19:05 13° NNE visible
17 Oct 5.3 12:20:50 10° NNW 12:21:09 11° NNW 12:21:09 11° NNW visible
18 Oct 5.4 11:42:36 10° N 11:43:05 13° N 11:43:05 13° N visible
20 Oct 5.4 12:06:57 10° N 12:07:04 11° N 12:07:04 11° N visible
21 Oct 5.7 11:28:58 10° N 11:28:59 10° N 11:28:59 10° N visible
